Flag for Germany Weather past 2 weeks in Dülmen, North Rhine-Westphalia, Germany

Now
55 °F

Light rain. Passing clouds.


Feels Like: 55 °F
Forecast: 55 / 68 °F
Wind: 5 mph from Southwest

Location: Dortmund / Wickede

Current Time: Aug 27, 2015 at 10:11:10 PM

Latest Report: Aug 27, 2015 at 9:50 PM


Visibility: N/A

Pressure: 29.89 "Hg

Humidity: 88%

Dew point: 52 °F

Location of DülmenLocation

Historic Weather in Dülmen — Graph

°F

Dülmen temperature yesterday

Maximum temperature yesterday: 79 °F (at 3:50 PM)
Minimum temperature yesterday: 63 °F (at 5:20 AM)
Average temperature yesterday: 72 °F

Past Weeks' High & Low Weather Summary

 TemperatureHumidityPressure
High84 °F (Aug 13, 3:50 PM)94% (Aug 13, 5:20 AM)30.24 "Hg (Aug 13, 5:20 AM)
Low50 °F (Aug 19, 5:20 AM)26% (Aug 22, 4:50 PM)29.56 "Hg (Aug 24, 2:50 PM)
Average66 °F65%29.93 "Hg
* Reported Aug 12 8:20 PM — Aug 27 8:50 PM, Dülmen, Weather by CustomWeather, © 2015

Note: Actual official high and low records may vary slightly from our data, if they occured in-between our weather recording intervals... More about our weather records

Advertising

Dülmen weather history for previous 24 hours

 ConditionsComfort  
Time TempWeatherWind HumidityBarometerVisibility
8:50 PM
Thu, Aug 27
55 °FLight rain. Partly sunny.3 mph88%29.86 "HgN/A
8:20 PM55 °FLight rain. Partly sunny.6 mph88%29.86 "Hg4 mi
7:50 PM55 °FLight rain. Partly sunny.7 mph88%29.86 "HgN/A
7:20 PM55 °FLight rain. Partly sunny.6 mph94%29.86 "Hg4 mi
6:50 PM55 °FLight rain. Fog.7 mph94%29.86 "Hg3 mi
6:20 PM57 °FLight rain. Fog.8 mph88%29.86 "Hg2 mi
5:50 PM55 °FLight rain. Fog.5 mph94%29.86 "Hg2 mi
5:20 PM55 °FLight rain. Broken clouds.6 mph88%29.86 "Hg4 mi
4:50 PM57 °FLight rain. Broken clouds.8 mph88%29.86 "Hg4 mi
4:20 PM59 °FLight rain. Partly sunny.7 mph88%29.86 "Hg4 mi
3:50 PM59 °FLight rain. Broken clouds.7 mph88%29.86 "Hg5 mi
3:20 PM59 °FLight rain. Broken clouds.7 mph88%29.86 "Hg4 mi
2:50 PM61 °FLight rain. Broken clouds.12 mph83%29.86 "Hg4 mi
2:20 PM61 °FLight rain. Broken clouds.14 mph77%29.86 "Hg4 mi
1:50 PM63 °FLight rain. Broken clouds.13 mph77%29.86 "Hg4 mi
1:20 PM64 °FScattered showers. Broken clouds.12 mph73%29.86 "HgN/A
12:50 PM64 °FPartly sunny.13 mph68%29.86 "HgN/A
12:20 PM64 °FPartly sunny.9 mph73%29.86 "HgN/A
11:20 AM66 °FPassing clouds.12 mph60%29.86 "HgN/A
10:50 AM66 °FPassing clouds.13 mph64%29.86 "HgN/A
10:20 AM66 °FSprinkles. Passing clouds.14 mph64%29.86 "HgN/A
9:50 AM66 °FMore clouds than sun.16 mph64%29.83 "HgN/A
9:20 AM66 °FLight rain. Overcast.16 mph73%29.83 "HgN/A
8:50 AM66 °FSprinkles. More clouds than sun.16 mph68%29.83 "HgN/A
8:20 AM68 °FSprinkles. Overcast.15 mph64%29.83 "HgN/A
7:50 AM68 °FPassing clouds.12 mph69%29.80 "HgN/A
7:20 AM68 °FPassing clouds.12 mph69%29.80 "HgN/A
6:50 AM68 °FPassing clouds.14 mph64%29.80 "HgN/A
6:20 AM70 °FPassing clouds.16 mph60%29.77 "HgN/A
5:50 AM70 °FPassing clouds.13 mph57%29.77 "HgN/A
5:20 AM68 °FClear.6 mph60%29.77 "Hg10 mi
10:50 PM
Wed, Aug 26
73 °FPassing clouds.17 mph44%29.80 "HgN/A
10:20 PM73 °FClear.15 mph44%29.77 "Hg10 mi
Weather by CustomWeather, © 2015

See weather overviewHow to use our weather pages